User: anonymous   Login
Location: Meetinghouse Hill
(42.7686°N, 71.7752°W)
Time: 12:25:50
(UTC-04:00)
Language:

Iridium 34 - Orbit

View from above orbital plane
View from above orbital plane
View from above satellite
View from above satellite

Ground track
Ground track

The orbit data is extracted from the following two-line orbital elements,

1 24969U 97056E   14303.20702152  .00000476  00000-0  16307-3 0    30
2 24969 086.3988 000.4892 0002256 108.5187 251.6254 14.34218169894793
Epoch (UTC): 30 October 2014 04:58:06
Eccentricity: 0.0002256
inclination: 86.3988°
perigee height: 776 km
apogee height: 779 km
right ascension of ascending node: 0.4892°
argument of perigee: 108.5187°
revolutions per day: 14.34218169
mean anomaly at epoch: 251.6254°
orbit number at epoch: 89479

The dashed part of the orbit path shows where the satellite is in the earth's shadow,  

DLR